User: anonymous
Location: Brno
(49.2000°N, 16.6330°E)
Time: 23:07:11
(UTC+02:00)
Language:

BREEZE M DEB (TANK) - Orbit

View from above orbital plane
View from above orbital plane
View from above satellite
View from above satellite

Ground track
Ground track

The orbit data is extracted from the following two-line orbital elements,

1 28359U 04022B   14112.85342902  .00010411  00000-0  13288-2 0  1710
2 28359 049.5157 106.9700 4724255 336.8644 029.1610 06.10107443214334
Epoch (UTC): 22 April 2014 20:28:56
Eccentricity: 0.4724255
inclination: 49.5157°
perigee height: 296 km
apogee height: 12249 km
right ascension of ascending node: 106.9700°
argument of perigee: 336.8644°
revolutions per day: 6.10107443
mean anomaly at epoch: 29.1610°
orbit number at epoch: 21433

The dashed part of the orbit path shows where the satellite is in the earth's shadow,  

DLR